Flag for United Kingdom Weather past 2 weeks in Swanage, England, United Kingdom

Now
59 °F

Clear.


Feels Like: 58 °F
Forecast: 48 / 66 °F
Wind: 8 mph from West

Location: Bournemouth Airport

Current Time: Aug 22, 2014 at 1:28:09 AM

Latest Report: Aug 22, 2014 at 12:20 AM


Visibility: 10 mi

Pressure: 29.89 "Hg

Humidity: 68%

Dew point: 48 °F

Location of SwanageLocation

Historic Weather in Swanage — Graph

°F

Swanage temperature yesterday

Maximum temperature yesterday: 64 °F (at 10:50 AM)
Minimum temperature yesterday: 37 °F (at 5:50 AM)
Average temperature yesterday: 56 °F

Past Weeks' High & Low Weather Summary

 TemperatureHumidityPressure
High77 °F (Aug 7, 3:20 PM)100% (Aug 7, 6:20 AM)30.21 "Hg (Aug 7, 6:20 AM)
Low37 °F (Aug 20, 4:50 AM)33% (Aug 20, 3:20 PM)29.33 "Hg (Aug 10, 9:50 AM)
Average61 °F71%29.87 "Hg
* Reported Aug 7 12:20 AM — Aug 22 12:20 AM, Swanage, Weather by CustomWeather, © 2014

Note: Actual official high and low records may vary slightly from our data, if they occured in-between our weather recording intervals... More about our weather records

Advertising

Swanage weather history for previous 24 hours

 ConditionsComfort  
Time TempWeatherWind HumidityBarometerVisibility
12:20 AM
Aug 22
59 °FClear.8 mph68%29.89 "Hg10 mi
11:20 PM
Aug 21
59 °FOvercast.9 mph68%29.92 "HgN/A
10:50 PM59 °FOvercast.7 mph68%29.92 "HgN/A
10:20 PM59 °FClear.9 mph68%29.92 "Hg10 mi
9:50 PM59 °FOvercast.8 mph68%29.92 "HgN/A
9:20 PM59 °FOvercast.8 mph68%29.92 "HgN/A
8:50 PM59 °FPartly sunny.9 mph68%29.92 "HgN/A
8:20 PM59 °FPassing clouds.10 mph68%29.92 "HgN/A
7:50 PM61 °FPassing clouds.13 mph63%29.92 "HgN/A
7:20 PM61 °FPassing clouds.13 mph63%29.92 "HgN/A
6:50 PM61 °FPassing clouds.15 mph59%29.92 "HgN/A
6:20 PM61 °FPassing clouds.13 mph68%29.95 "HgN/A
5:50 PM59 °FScattered clouds.14 mph68%29.95 "HgN/A
5:20 PM61 °FScattered showers. Scattered clouds.17 mph63%29.95 "HgN/A
4:50 PM63 °FScattered showers. Scattered clouds.16 mph56%29.95 "HgN/A
4:20 PM64 °FScattered clouds.16 mph56%29.95 "HgN/A
3:50 PM64 °FScattered clouds.13 mph56%29.98 "HgN/A
3:20 PM61 °FScattered clouds.12 mph59%29.98 "HgN/A
2:50 PM61 °FScattered clouds.13 mph59%29.98 "HgN/A
2:20 PM64 °FScattered clouds.14 mph49%29.98 "HgN/A
1:50 PM64 °FPassing clouds.13 mph46%30.01 "HgN/A
1:20 PM63 °FPassing clouds.15 mph52%30.01 "HgN/A
12:50 PM64 °FScattered clouds.15 mph49%30.01 "HgN/A
12:20 PM63 °FScattered clouds.13 mph45%30.01 "HgN/A
11:50 AM64 °FScattered clouds.12 mph49%30.01 "HgN/A
11:20 AM61 °FScattered clouds.13 mph55%30.04 "HgN/A
10:50 AM64 °FPassing clouds.12 mph49%30.04 "HgN/A
10:20 AM61 °FPassing clouds.13 mph59%30.04 "HgN/A
9:50 AM61 °FPassing clouds.9 mph59%30.04 "HgN/A
9:20 AM57 °FPassing clouds.9 mph67%30.04 "HgN/A
8:50 AM54 °FSunny.No wind82%30.04 "Hg10 mi
8:20 AM50 °FPassing clouds.1 mph82%30.04 "HgN/A
7:50 AM46 °FSunny.1 mph93%30.04 "Hg10 mi
7:20 AM41 °FClear.1 mph93%30.04 "HgN/A
6:50 AM37 °FLight fog.No wind93%30.04 "HgN/A
6:20 AM37 °FClear.2 mph93%30.04 "Hg10 mi
5:50 AM37 °FClear.1 mph93%30.04 "Hg10 mi
5:20 AM39 °FClear.1 mph93%30.04 "Hg10 mi
4:50 AM39 °FClear.1 mph93%30.07 "Hg10 mi
1:20 AM45 °FPassing clouds.1 mph87%30.07 "HgN/A
Weather by CustomWeather, © 2014

See weather overviewHow to use our weather pages